Tracking 31011 objects as of 12-Jul-2025
HD Live streaming from Space Station
objects crossing your sky now

STARLINK-1470

Track STARLINK-1470 now!
10-day predictions
STARLINK-1470 is classified as:


NORAD ID: 45772
Int'l Code: 2020-038AU
Perigee: 537.7 km
Apogee: 544.5 km
Inclination: 53.1 °
Period: 95.3 minutes
Semi major axis: 6912 km
RCS: Unknown
Launch date: June 13, 2020
Source: United States (US)
Launch site: AIR FORCE EASTERN TEST RANGE (AFETR)
Your satellite tracking list
Your tracking list is empty




NASA's NSSDC Master Catalog

Two Line Element Set (TLE):
1 45772U 20038AU  25193.19678442  .00013141  00000-0  79939-3 0  9999
2 45772  53.0507 194.6099 0004900 324.8992  35.1675 15.10742711281642
Source of the keplerian elements: AFSPC